Tracking 18785 objects as of 26-July-2017
HD Live streaming from Space Station
objects crossing your sky now
MAYAK may become the brightest orbital object in the night sky!
Where is MAYAK now?
How to spot MAYAK

OPS 9343 (IDSCS 22)

Track OPS 9343 (IDSCS 22) now!
OPS 9343 (IDSCS 22) is classified as:


NORAD ID: 3286
Int'l Code: 1968-050C
Perigee: 33,743.1 km
Apogee: 33,892.3 km
Inclination: 1.3 °
Period: 1,336.3 minutes
Semi major axis: 40188 km
RCS: 0.2393 m2 (medium)
Launch date: June 13, 1968
Source: United States (US)
Launch site: AIR FORCE EASTERN TEST RANGE (AFETR)
Your satellite tracking list
Your tracking list is empty





NASA's NSSDC Master Catalog

Two Line Element Set (TLE):
1  3286U 68050C   17205.48604560 -.00000088 +00000-0 +00000-0 0  9993
2  3286 001.3324 035.0335 0018565 100.7573 173.5387 01.07757259104834
Source of the keplerian elements: AFSPC